STARLINK-11091, 61207

Orbit data source: Space-Track

STARLINK-11091, 61207 is a payload satellite owned by SpaceX/Seattle (US) in LEO that was launched on Fri, 20 Sep 2024 UTC via an FALCON 9 launch vehicle from the Air Force Western Test Range (AFWTR). Payload-class satellites include a variety of spacecraft equipped with specific instruments for various scientific and technological missions. These include communications satellites like Starlink; space stations such as the ISS; scientific satellites like the Hubble; Earth observation satellites from companies like Planet Labs, Umbra, and HawkEye 360; GPS; miniature CubeSats for education and research; and military/defense satellites.

Loading next visibility...
Identifier
61207, 2024-171H
Orbit
LEO
Country
Flag of USUS
Related business
Manufacturer
SpaceX/Seattle
Mission
Operational Commercial Communications
Bus & Motor
STARLINK V2MD, Unknown motor
Mass
960 kg wet, ~910 kg dry
Launch date (UTC)
2024-09-20 (2 years ago)
Launch vehicle
FALCON 9
Launch site
Air Force Western Test Range (AFWTR)
Object type
Payload
Rocket body
Debris
Shape & HBR
Box + 2 Pan, 18.1 m
Radar Cross Section
36.964 m², Large (>1 m²)

Expand to show TLE details & history
Last TLE update: 20 hours ago

TLE from 20 hours ago
0 STARLINK-11091
1 61207U 24171H   26171.02949382  .00000634  00000-0  10079-4 0  9999
2 61207  53.1581  31.6701 0000577 110.2332 249.8749 15.69718190100472
Epoch: 2026-06-20T00:42Z
TLE epoch observation values (Epoch: 2026-06-20T00:42:28.266Z)
Latitude
0.00008°
Longitude
112.80241°
Altitude
360.752 km
Speed
7.694 km/s
True Right ascension
02h 06m 40s
True Declination
0° 00' 00"
Sunlit
Object was in daylight at epoch
Visualization orbit readout
Latitude
Unknown
Longitude
Unknown
Altitude
Unknown
Speed
Unknown
Apparent Right ascension
Unknown
Apparent Declination
Unknown
Sunlit
N/A
Visualization observer readout
Local Sidereal Time
07:16:04
Azimuth
Unknown
Elevation
Unknown
Doppler factor
Unknown
Orbital elements
Apogee altitude
360.353 km
Perigee altitude
359.576 km
Semi-major axis
6,738.101 km
Eccentricity
0.00006
Inclination
53.1581°
RAAN
31.6701°
Arg. of periapsis
110.2332°
True anomaly
249.86869°
Mean anomaly
249.8749°
Eccentric anomaly
249.8718°
Mean motion
3.92407 °/min
Orbital period
91.74 mins
BSTAR
0.000010079
Loading maneuver chart data...
Computing Atmospheric mass density...
Loading historical data...
Loading historical data...
Loading historical data...
Loading historical data...
Loading historical data...
Loading historical data...
Loading historical data...

Documentation

Showing up to 5 results
|